Hamilton, OH

2:51 AM EST on February 21, 2018 (GMT -0500)
Butler County Regional

Weather History for KHAO - July, 2013

Change the Weather History Date:

Thursday, July 18, 2013

  Actual Average (KLUK) Record (KLUK)
Temperature  
Mean Temperature 82 °F -  
Max Temperature 93 °F 88 °F 96 °F (1977)
Min Temperature 71 °F 65 °F 54 °F (2014)
Cooling Degree Days 17    
Growing Degree Days 32 (Base 50)    
Moisture  
Dew Point 71 °F    
Average Humidity 73    
Maximum Humidity 97    
Minimum Humidity 44    
Precipitation  
Precipitation 0.00 in - - ()
Sea Level Pressure  
Sea Level Pressure 30.14 in    
Wind  
Wind Speed 1 mph (West)    
Max Wind Speed 6 mph    
Max Gust Speed -    
Visibility 8 miles    
Events      
Averages and records for this station are not official NWS values.
T = Trace of Precipitation, MM = Missing Value Source: NWS Daily Summary

Daily Weather History Graph

Daily Weather History Graph

Search for Another Location

Airport or City:

Trip Planner

Search our weather history database for the weather conditions in past years. The results will help you decide how hot, cold, wet, or windy it might be!

Date:

Astronomy

Jul. 18, 2013 Rise Set
Actual Time 6:26 AM EDT 9:02 PM EDT
Civil Twilight 5:55 AM EDT 9:33 PM EDT
Nautical Twilight 5:16 AM EDT 10:11 PM EDT
Astronomical Twilight 4:32 AM EDT 10:55 PM EDT
Moon 4:58 PM EDT (7/18) 2:15 AM EDT (7/18)
Length of Visible Light 15h 38m
Length of Day
14h 35m
Waxing Gibbous, 77% of the Moon is Illuminated
Jul 18
Waxing Gibbous
Jul 22
Full
Jul 29
Last Quarter
Aug 6
New
Aug 14
First Quarter

Hourly Weather History & Observations

Time (EDT) Temp. Heat Index Dew Point Humidity Pressure Visibility Wind Dir Wind Speed Gust Speed Precip Events Conditions
12:53 AM 75.0 °F - 72.0 °F 90% 30.21 in 8.0 mi Calm Calm - N/A   Clear
1:53 AM 75.0 °F - 72.0 °F 90% 30.21 in 7.0 mi Calm Calm - N/A   Clear
2:53 AM 73.9 °F - 72.0 °F 93% 30.19 in 4.0 mi Calm Calm - N/A   Clear
3:53 AM 73.0 °F - 71.1 °F 93% 30.19 in 4.0 mi Calm Calm - N/A   Clear
4:53 AM 72.0 °F - 71.1 °F 97% 30.17 in 4.0 mi Calm Calm - N/A   Clear
5:53 AM 72.0 °F - 70.0 °F 93% 30.17 in 5.0 mi Calm Calm - N/A   Clear
6:43 AM 71.6 °F - 69.8 °F 94% 30.20 in 2.0 mi Calm Calm - N/A   Clear
6:53 AM 71.1 °F - 70.0 °F 96% 30.19 in 3.0 mi Calm Calm - N/A   Clear
7:53 AM 75.9 °F - 73.0 °F 91% 30.20 in 6.0 mi Calm Calm - N/A   Clear
8:53 AM 81.0 °F 85.8 °F 73.0 °F 77% 30.20 in 9.0 mi Calm Calm - N/A   Clear
9:53 AM 84.9 °F 92.1 °F 73.9 °F 69% 30.20 in 10.0 mi Calm Calm - N/A   Clear
10:53 AM 88.0 °F 94.7 °F 72.0 °F 59% 30.19 in 10.0 mi Calm Calm - N/A   Clear
11:53 AM 90.0 °F 96.4 °F 71.1 °F 54% 30.17 in 10.0 mi Calm Calm - N/A   Clear
12:53 PM 91.0 °F 98.2 °F 72.0 °F 53% 30.16 in 10.0 mi Variable 3.5 mph - N/A   Clear
1:53 PM 91.0 °F 96.6 °F 70.0 °F 50% 30.15 in 10.0 mi Variable 3.5 mph - N/A   Clear
2:53 PM 90.0 °F 94.5 °F 69.1 °F 50% 30.12 in 10.0 mi West 3.5 mph - N/A   Scattered Clouds
3:53 PM 93.9 °F 100.3 °F 70.0 °F 46% 30.10 in 10.0 mi SW 4.6 mph - N/A   Clear
4:53 PM 93.0 °F 97.4 °F 68.0 °F 44% 30.08 in 10.0 mi West 5.8 mph - N/A   Clear
5:53 PM 91.9 °F 96.9 °F 69.1 °F 47% 30.06 in 10.0 mi Variable 5.8 mph - N/A   Clear
6:53 PM 91.0 °F 95.6 °F 69.1 °F 48% 30.04 in 10.0 mi West 3.5 mph - N/A   Clear
7:53 PM 89.1 °F 92.9 °F 68.0 °F 50% 30.03 in 10.0 mi West 3.5 mph - N/A   Clear
8:53 PM 81.0 °F 85.8 °F 73.0 °F 77% 30.04 in 10.0 mi Calm Calm - N/A   Clear
9:53 PM 78.1 °F - 72.0 °F 81% 30.06 in 9.0 mi Calm Calm - N/A   Clear
10:53 PM 77.0 °F - 73.0 °F 88% 30.06 in 10.0 mi Calm Calm - N/A   Clear
11:53 PM 75.0 °F - 73.0 °F 94% 30.06 in 9.0 mi Calm Calm - N/A   Clear